TimeCST,TemperatureF,Dew PointF,Humidity,Sea Level PressureIn,VisibilityMPH,Wind Direction,Wind SpeedMPH,Gust SpeedMPH,PrecipitationIn,Events,Conditions,WindDirDegrees,DateUTC
12:53 AM,30.9,23.0,72,29.64,10.0,SSE,16.1,-,N/A,,Clear,150,2013-02-18 06:53:00
1:53 AM,30.9,23.0,72,29.63,10.0,SSE,11.5,-,N/A,,Clear,160,2013-02-18 07:53:00
2:53 AM,30.0,23.0,75,29.62,10.0,SSE,8.1,-,N/A,,Clear,160,2013-02-18 08:53:00
3:53 AM,27.0,21.9,81,29.60,10.0,South,5.8,-,N/A,,Clear,170,2013-02-18 09:53:00
4:53 AM,28.0,23.0,81,29.58,10.0,SSE,6.9,-,N/A,,Clear,160,2013-02-18 10:53:00
5:53 AM,25.0,21.0,85,29.59,10.0,SSW,4.6,-,N/A,,Clear,200,2013-02-18 11:53:00
6:53 AM,24.1,21.0,88,29.60,9.0,South,3.5,-,N/A,,Clear,190,2013-02-18 12:53:00
7:53 AM,26.6,23.0,86,29.56,8.0,West,8.1,-,N/A,,Clear,280,2013-02-18 13:53:00
8:53 AM,34.0,27.0,75,29.61,10.0,WNW,10.4,-,N/A,,Clear,290,2013-02-18 14:53:00
9:42 AM,35.6,28.4,75,29.59,10.0,WNW,12.7,-,N/A,,Mostly Cloudy,300,2013-02-18 15:42:00
9:53 AM,36.0,28.9,76,29.60,10.0,NW,10.4,-,N/A,,Mostly Cloudy,310,2013-02-18 15:53:00
10:21 AM,35.6,28.4,75,29.59,10.0,NW,18.4,23.0,N/A,,Overcast,310,2013-02-18 16:21:00
10:53 AM,35.1,28.9,78,29.61,7.0,NW,17.3,-,N/A,,Overcast,310,2013-02-18 16:53:00
11:51 AM,30.2,26.6,86,29.61,2.5,NW,24.2,34.5,N/A,,Overcast,320,2013-02-18 17:51:00
11:53 AM,30.9,27.0,85,29.63,2.5,NW,25.3,33.4,N/A,,Overcast,320,2013-02-18 17:53:00
12:07 PM,30.2,26.6,86,29.61,4.0,NW,25.3,36.8,N/A,,Overcast,320,2013-02-18 18:07:00
12:42 PM,28.4,21.2,74,29.62,9.0,NW,26.5,36.8,N/A,,Overcast,310,2013-02-18 18:42:00
12:53 PM,28.9,21.9,75,29.65,10.0,NW,26.5,32.2,N/A,,Overcast,320,2013-02-18 18:53:00
1:53 PM,26.1,19.9,78,29.68,3.0,WNW,19.6,32.2,0.00,Snow,Light Snow,300,2013-02-18 19:53:00
2:53 PM,24.1,17.1,75,29.71,10.0,NW,24.2,35.7,0.00,,Overcast,310,2013-02-18 20:53:00
3:11 PM,24.8,15.8,69,29.68,10.0,NW,24.2,35.7,N/A,,Overcast,310,2013-02-18 21:11:00
3:53 PM,21.9,12.9,68,29.73,10.0,WNW,31.1,38.0,N/A,,Overcast,300,2013-02-18 21:53:00
4:53 PM,19.9,10.9,68,29.74,10.0,WNW,28.8,38.0,N/A,,Overcast,300,2013-02-18 22:53:00
5:53 PM,16.0,8.1,71,29.78,4.0,NW,31.1,41.4,0.00,Snow,Light Snow,310,2013-02-18 23:53:00
6:53 PM,14.0,6.1,71,29.81,5.0,NW,25.3,34.5,0.00,Snow,Light Snow,310,2013-02-19 00:53:00
7:53 PM,12.0,3.0,67,29.83,9.0,NW,29.9,40.3,0.00,,Overcast,310,2013-02-19 01:53:00
8:53 PM,10.0,1.9,70,29.83,6.0,NW,27.6,40.3,0.00,Snow,Light Snow,310,2013-02-19 02:53:00
9:53 PM,8.1,-0.9,67,29.84,6.0,NW,35.7,43.7,0.00,Snow,Light Snow,310,2013-02-19 03:53:00
10:24 PM,6.8,-0.4,72,29.81,2.5,NW,32.2,40.3,0.00,Snow,Light Snow,310,2013-02-19 04:24:00
10:29 PM,6.8,-2.2,67,29.81,3.0,NW,31.1,40.3,0.00,Snow,Light Snow,310,2013-02-19 04:29:00
10:53 PM,6.1,-2.0,69,29.86,5.0,NW,31.1,41.4,0.00,Snow,Light Snow,320,2013-02-19 04:53:00
11:23 PM,6.8,-0.4,72,29.83,4.0,WNW,26.5,36.8,0.00,,Overcast,300,2013-02-19 05:23:00
11:53 PM,6.1,-2.0,69,29.89,4.0,NW,33.4,42.6,0.00,,Overcast,310,2013-02-19 05:53:00